sat.trackr.live / text

‹ back to catalog

STARLINK-30137

NORAD 56843 · 2023-079W

PAYLOAD ACTIVE UNKNOWN

§ Identity

Operator
Country
US
Launch date
2023-06-04
Launch site
AFETR
Launch vehicle
Mass (kg)
RCS (m²)

Purposes: comms

External: N2YO · Heavens-Above · Gunter

§ Orbital elements

Epoch: 2026-05-24T02:30:47.445120Z

Period
94.27 min
Inclination
43.0053°
Eccentricity
0.0001418
Mean motion
15.27603652 rev/d
Perigee alt
482.0 km
Apogee alt
484.0 km
Semi-major
6,861.1 km
B*
-1.8493e-4
RAAN
40.9102°
Arg perigee
278.4941°
Mean anomaly
81.5750°
Rev number
16,442

§ Raw data

STARLINK-301371 56843U 23079W   26144.10471580 -.00005351  00000+0 -18493-3 0  99932 56843  43.0053  40.9102 0001418 278.4941  81.5750 15.27603652164428

JSON: /api/v1/satellites/56843 · /tle

For live sub-satellite position, see the globe view (requires WebGL).

§ Visibility from observer

Set your observer location to see the next 7 days of passes ≥ 10°. The values pass through the URL so the page stays shareable.

No JS? Fill the form by hand. The geolocation button needs JavaScript.